Airfield :
LOGIN :

Register | Disclaimer

   EN    FR    IT 

 










Legend :    VFR   Marginal VFR   IFR   Intensive IFR   Very Intensive IFR
Visi :
Ceiling :
>= 8 km
>= 3000ft
5 to 8 km
1000 to 3000 ft
1500m to 5 km
500 to 1000 ft
800 to 1500m
200 to 500 ft
< 800m
< 200 ft
Symbols :   Thunderstorms  Fog  Heavy snow  Heavy precipitations  Wind > 20 kt
SIGMETs :     Misc.  Thunderstorms  Icing  Turbulence  Mountain Waves  Volcanic Ashes







- Airport Elevation : 48 ft
- IATA code : PSR


LIBP - Abruzzo Pescara

CURRENT METAR :
  • 252050Z 23006KT CAVOK 15/13 Q1018

EXPIRED METARs :
  • 251950Z 25004KT CAVOK 16/13 Q1018
  • 251850Z VRB02KT CAVOK 18/13 Q1017

TAF TAF LIBP
Valid from the 25 at 18:00 until the 26 at 18:00 UTC


251700Z 2518/2618 01010KT 9999 FEW040
BECMG 2518/2520 31011KT
BECMG 2607/2610 01013KT
No reported NOTAMs for that airfield.



MET'MAP, your aeronautical weather chart ! - Copyright ORBIFLY December 2007 - Disclaimer

ORBIFLY MET'MAP TEAM :

Programming & Development : Alexandra Zaïnal
Concept & Development : Baudouin d'Aumeries
Co-Development & Prog : Marc-Olivier Méhu
Technical & hardware support : Manuel Goepfert

Contact : metmap@orbifly.com




SOURCES & CREDITS :

   NOAA